DW4248 Weather Reports


Display with metric or nautical units.
time (UTC)temp
F
wind
direction
speed
MPH
gust
MPH
rain 1hr
in
rain 24hr
in
rain mn
in
humidity
%
barometer
mb
20260503021824 50 0 0.0 0.0 0.00 0.00 0.00 70 1019.0
20260503020903 51 0 0.0 0.0 0.00 0.00 0.00 69 1019.0
20260503020004 51 0 0.0 0.0 0.00 0.00 0.00 67 1018.9
20260503015403 51 0 0.0 0.0 0.00 0.00 0.00 65 1018.9
20260503014503 52 0 0.0 0.0 0.00 0.00 0.00 66 1018.8
20260503013603 53 0 0.0 0.0 0.00 0.00 0.00 64 1018.6
20260503012703 53 0 0.0 0.0 0.00 0.00 0.00 61 1018.6
20260503011824 54 0 0.0 0.0 0.00 0.00 0.00 59 1018.6
20260503010924 55 0 0.0 0.0 0.00 0.00 0.00 58 1018.5
20260503010024 56 0 0.0 0.0 0.00 0.00 0.00 54 1018.5
20260503005424 56 0 0.0 0.0 0.00 0.00 0.00 54 1018.4
20260503004503 58 0 0.0 0.0 0.00 0.00 0.00 54 1018.4
20260503003603 58 0 0.0 0.0 0.00 0.00 0.00 49 1018.4
20260503002724 59 0 0.0 1.0 0.00 0.00 0.00 47 1018.4
20260503001803 59 314 0.0 1.0 0.00 0.00 0.00 46 1018.4
20260503000924 60 314 0.0 1.0 0.00 0.00 0.00 45 1018.3
20260503000003 60 319 1.0 3.0 0.00 0.00 0.00 45 1018.3
20260502235403 60 322 1.0 2.0 0.00 0.00 0.00 43 1018.3
20260502234503 60 320 1.0 4.0 0.00 0.00 0.00 43 1018.3
20260502233624 60 327 1.0 5.0 0.00 0.00 0.00 43 1018.2
20260502232703 60 328 0.0 2.0 0.00 0.00 0.00 45 1018.3
20260502231803 60 325 1.0 3.0 0.00 0.00 0.00 43 1018.4
20260502230903 60 325 1.0 4.0 0.00 0.00 0.00 42 1018.5
20260502230003 60 327 1.0 4.0 0.00 0.00 0.00 43 1018.6
20260502225403 59 324 1.0 5.0 0.00 0.00 0.00 44 1018.6
20260502224503 60 320 1.0 6.0 0.00 0.00 0.00 42 1018.5
20260502223603 60 325 2.0 6.0 0.00 0.00 0.00 41 1018.5
20260502222703 61 334 3.0 8.0 0.00 0.00 0.00 41 1018.4
20260502221803 61 336 2.0 10.0 0.00 0.00 0.00 42 1018.4
20260502220903 60 328 2.0 8.0 0.00 0.00 0.00 44 1018.4
20260502220003 60 331 3.0 10.0 0.00 0.00 0.00 42 1018.5
20260502215403 60 329 3.0 10.0 0.00 0.00 0.00 41 1018.5
20260502214524 60 331 3.0 9.0 0.00 0.00 0.00 41 1018.6
20260502213624 61 325 2.0 5.0 0.00 0.00 0.00 41 1018.6
20260502212703 61 329 2.0 7.0 0.00 0.00 0.00 43 1018.6
20260502211803 61 328 1.0 6.0 0.00 0.00 0.00 41 1018.7
20260502210903 61 325 2.0 5.0 0.00 0.00 0.00 41 1018.7
20260502210003 60 328 3.0 9.0 0.00 0.00 0.00 41 1018.7
20260502205424 59 330 3.0 9.0 0.00 0.00 0.00 41 1018.7
20260502204503 60 327 2.0 7.0 0.00 0.00 0.00 43 1018.8
20260502203603 60 332 1.0 5.0 0.00 0.00 0.00 43 1018.9
20260502202703 60 324 2.0 7.0 0.00 0.00 0.00 43 1019.0
20260502201803 60 323 1.0 5.0 0.00 0.00 0.00 44 1019.1
20260502200924 60 329 2.0 8.0 0.00 0.00 0.00 42 1019.2
20260502200024 61 333 3.0 8.0 0.00 0.00 0.00 41 1019.2
20260502195403 60 327 1.0 6.0 0.00 0.00 0.00 44 1019.2
20260502194524 61 323 1.0 4.0 0.00 0.00 0.00 48 1019.3
20260502193603 60 327 0.0 4.0 0.00 0.00 0.00 46 1019.3
20260502192703 60 334 2.0 6.0 0.00 0.00 0.00 45 1019.4
20260502191803 60 331 1.0 9.0 0.00 0.00 0.00 47 1019.4
20260502190903 59 328 2.0 6.0 0.00 0.00 0.00 46 1019.5
20260502190004 59 324 2.0 6.0 0.00 0.00 0.00 46 1019.5
20260502185403 60 327 2.0 6.0 0.00 0.00 0.00 44 1019.5
20260502184503 60 318 1.0 4.0 0.00 0.00 0.00 51 1019.5
20260502183603 60 333 1.0 4.0 0.00 0.00 0.00 49 1019.5
20260502182703 59 330 2.0 8.0 0.00 0.00 0.00 51 1019.5
20260502181824 59 329 2.0 8.0 0.00 0.00 0.00 51 1019.5
20260502180903 58 325 2.0 5.0 0.00 0.00 0.00 49 1019.6
20260502163603 57 323 2.0 6.0 0.00 0.00 0.00 54 1019.8
20260502162703 57 324 2.0 7.0 0.00 0.00 0.00 56 1019.8
20260502161803 56 324 1.0 7.0 0.00 0.00 0.00 54 1019.8
20260502160903 56 313 1.0 4.0 0.00 0.00 0.00 60 1019.9
20260502151803 56 323 2.0 9.0 0.00 0.00 0.00 66 1019.5
20260502150903 56 325 2.0 5.0 0.00 0.00 0.00 68 1019.5
20260502123624 49 331 0.0 1.0 0.00 0.00 0.00 88 1018.5
20260502122703 48 0 0.0 0.0 0.00 0.00 0.00 89 1018.4
20260502121803 47 0 0.0 0.0 0.00 0.00 0.00 90 1018.3
20260502120903 47 0 0.0 0.0 0.00 0.00 0.00 90 1018.2
20260502115424 47 0 0.0 0.0 0.00 0.00 0.00 90 1017.9
20260502114503 46 0 0.0 0.0 0.00 0.00 0.00 90 1017.9
20260502113603 46 34 0.0 1.0 0.00 0.00 0.00 90 1017.7
20260502112703 46 0 0.0 0.0 0.00 0.00 0.00 90 1017.5
20260502111803 46 0 0.0 0.0 0.00 0.00 0.00 89 1017.4
20260502110903 46 0 0.0 0.0 0.00 0.00 0.00 89 1017.3
20260502110004 46 0 0.0 0.0 0.00 0.00 0.00 89 1017.3
20260502105403 46 0 0.0 0.0 0.00 0.00 0.00 88 1017.3
20260502104503 46 0 0.0 0.0 0.00 0.00 0.00 88 1017.3
20260502103603 46 0 0.0 0.0 0.00 0.00 0.00 87 1017.1
20260502102703 47 0 0.0 0.0 0.00 0.00 0.00 86 1017.1
20260502100903 47 0 0.0 0.0 0.00 0.00 0.00 84 1017.1
20260502090903 49 0 0.0 0.0 0.00 0.00 0.00 80 1016.8
20260502070903 52 322 0.0 1.0 0.00 0.00 0.00 70 1017.1
20260502070003 52 322 0.0 2.0 0.00 0.00 0.00 71 1017.0
20260502065403 52 311 0.0 1.0 0.00 0.00 0.00 73 1016.8
20260502064503 52 326 0.0 2.0 0.00 0.00 0.00 71 1016.8
20260502063603 52 152 0.0 3.0 0.00 0.00 0.00 69 1016.8
20260502062703 53 320 1.0 3.0 0.00 0.00 0.00 70 1017.0
20260502061824 54 325 1.0 9.0 0.00 0.00 0.00 66 1017.1
20260502060903 54 324 1.0 3.0 0.00 0.00 0.00 64 1017.3
20260502060003 53 342 0.0 1.0 0.00 0.00 0.00 65 1016.8
20260502055403 53 344 0.0 1.0 0.00 0.00 0.00 67 1016.8
20260502054503 54 0 0.0 0.0 0.00 0.00 0.00 66 1016.9
20260502053603 54 326 0.0 1.0 0.00 0.00 0.00 65 1016.8
20260502052703 54 320 0.0 1.0 0.00 0.00 0.00 65 1016.8
20260502051803 54 208 0.0 2.0 0.00 0.00 0.00 64 1016.7
20260502050903 54 326 0.0 3.0 0.00 0.00 0.00 65 1016.8
20260502050004 54 327 0.0 2.0 0.00 0.00 0.00 67 1016.9
20260502045424 53 327 0.0 2.0 0.00 0.00 0.00 70 1016.9
20260502044524 53 344 0.0 1.0 0.00 0.00 0.00 73 1016.9
20260502043603 53 0 0.0 0.0 0.00 0.00 0.00 72 1016.8
20260502042703 53 0 0.0 0.0 0.00 0.00 0.00 71 1016.8
20260502041803 54 0 0.0 0.0 0.00 0.00 0.00 69 1016.8
20260502040924 54 0 0.0 0.0 0.00 0.00 0.00 67 1016.8
20260502040003 54 0 0.0 0.0 0.00 0.00 0.00 66 1016.8
20260502035403 54 0 0.0 0.0 0.00 0.00 0.00 65 1016.9
20260502034503 55 0 0.0 0.0 0.00 0.00 0.00 63 1016.9
20260502033603 55 0 0.0 0.0 0.00 0.00 0.00 64 1016.9
20260502032703 55 0 0.0 0.0 0.00 0.00 0.00 63 1017.0
20260502031824 55 0 0.0 0.0 0.00 0.00 0.00 61 1017.0
20260502030903 55 344 0.0 1.0 0.00 0.00 0.00 61 1017.0
20260502030003 56 344 0.0 1.0 0.00 0.00 0.00 59 1017.1
20260502025425 56 0 0.0 0.0 0.00 0.00 0.00 59 1017.1
20260502024503 56 0 0.0 0.0 0.00 0.00 0.00 58 1017.0
20260502023603 56 344 0.0 1.0 0.00 0.01 0.00 56 1016.9
20260502022724 56 0 0.0 0.0 0.00 0.02 0.00 54 1016.9